Other Public Products
Issued by NWS Grand Forks, ND

Home | Current Version | Previous Version | Graphics & Text | Print | Product List | Glossary On
Versions: 1 2 3 4 5 6 7 8 9 10 11 12 13 14 15 16 17 18 19 20 21 22 23 24 25 26 27 28 29 30 31 32 33 34 35 36 37 38 39 40 41 42 43 44 45 46 47 48 49 50
000
FPUS83 KFGF 040810
OPUFGF
PRAIRIE TO PINES WEATHER ROUNDUP
NATIONAL WEATHER SERVICE EASTERN NORTH DAKOTA/GRAND FORKS ND
300 AM CDT MON MAY 04 2015

 **SATELLITE DATA USED TO AUGMENT SKY COVER AT AUTOMATED STATIONS**
 *****  WEATHER ACROSS EASTERN NORTH DAKOTA  *****

CITY           SKY/WX    TMP DP  RH WIND       PRES   REMARKS
GRAND FORKS    CLEAR     38  29  70 N3        30.10R
GRAND FORKS AF CLEAR     37  26  65 N5        30.10R
GRAND CITY NWS   N/A     37 N/A N/A N3          N/A
BUXTON         NOT AVBL
DEVILS LAKE    CLEAR     39  28  65 N3        30.11S
FARGO          CLEAR     41  26  55 N9        30.08R
WAHPETON ARPT  SUNNY     37  27  65 NW5       30.09R
$$

 *****  WEATHER ACROSS CENTRAL AND WESTERN NORTH DAKOTA  *****

CITY           SKY/WX    TMP DP  RH WIND       PRES   REMARKS
JAMESTOWN      CLEAR     38  25  59 W3        30.11R
BISMARCK       PTCLDY    41  27  57 CALM      30.14R
MINOT          CLEAR     38  26  62 SW6       30.12S
MINOT AFB      CLEAR     33  26  77 SW3       30.11F
GARRISON         N/A     34  25  69 CALM      30.13S
WILLISTON      FLURRIES  32  23  69 N3        30.12F
DICKINSON      PTCLDY    39  26  59 CALM      30.11S
HETTINGER      MOCLDY    30  24  78 CALM      30.12F
$$

 *****  OTHER OBSERVATIONS NORTHEAST NORTH DAKOTA  *****

CITY           SKY/WX    TMP DP  RH WIND       PRES   REMARKS
WALHALLA       FAIR      36  32  87 CALM      30.12R
LANGDON        FAIR      32  23  69 CALM      30.11S
CAVALIER       FAIR      39  32  75 CALM      30.11S
GRAFTON        FAIR      41  34  75 CALM      30.12R
CANDO          FAIR      36  28  75 N6        30.13R
FORT TOTTEN      N/A     42  33  71 CALM      29.95S
ROLLA          NOT AVBL
RUGBY          NOT AVBL
 ***** THE ABOVE OBSERVATIONS ARE NON NWS ARE NOT QUALITY
        CONTROLLED AND MAY MIS-REPORT RAIN FOR SNOW...
$$

 *****  OTHER OBSERVATIONS SOUTHEAST NORTH DAKOTA *****

CITY           SKY/WX    TMP DP  RH WIND       PRES   REMARKS
COOPERSTOWN    NOT AVBL
VALLEY CITY    FAIR      41  28  60 NW9       30.11R
OAKES            N/A     39  28  65 NW6       30.11R
GWINNER        SUNNY     46  27  46 NW9       30.11R
BUFFALO        NOT AVBL
WYNDMERE       NOT AVBL
 ***** THE ABOVE OBSERVATIONS ARE NON NWS ARE NOT QUALITY
       CONTROLLED AND MAY MIS-REPORT RAIN FOR SNOW...
$$

  *****  WEATHER ACROSS NORTHERN MINNESOTA  *****

CITY           SKY/WX    TMP DP  RH WIND       PRES   REMARKS
FLAG ISLAND    CLEAR     43  39  87 W5        30.07R
WARROAD        CLEAR     37  34  87 CALM      30.10R
ROSEAU         CLEAR     36  30  80 CALM      30.10R
HALLOCK        CLEAR     39  28  65 CALM      30.11R
THF RVR FALLS  CLEAR     45  34  65 NE7       30.11R
HALSTAD        NOT AVBL
FOSSTON        NOT AVBL
BAUDETTE       CLEAR     37  34  89 W6        30.08R
WASKISH        CLEAR     34  32  93 CALM      30.08R
CROOKSTON      CLEAR     39  28  65 N3        30.11R
$$
  *****  WEATHER ACROSS CENTRAL AND WEST MINNESOTA  *****

CITY           SKY/WX    TMP DP  RH WIND       PRES   REMARKS
BEMIDJI        CLEAR     32  29  90 NW5       30.07R
PARK RAPIDS    CLEAR     40  30  67 NW3       30.07R
WADENA         CLEAR     43  30  61 CALM      30.07R
DETROIT LAKES  CLEAR     46  34  61 NW3       30.08R
MOORHEAD       CLEAR     39  25  56 N5        30.09R
FERGUS FALLS   CLEAR     46  28  49 N3        30.09R
ELBOW LAKE     FAIR      46  32  57 NE3       30.07R
MORRIS MN      CLEAR     43  27  52 NW8       30.06R
STAPLES        CLEAR     43  30  61 CALM      30.06S
WHEATON        CLEAR     43  27  52 NW3       30.10R
$$
  *****  WEATHER ELSEWHERE ACROSS MINNESOTA  *****

CITY           SKY/WX    TMP DP  RH WIND       PRES   REMARKS
DULUTH         CLEAR     49  33  54 NW8       30.01R
INTRNTL FALLS  CLEAR     31  28  89 CALM      30.05R
ELY            CLEAR     43  36  75 CALM      30.03R
CLOQUET        CLEAR     46  30  53 NW9       30.02R
BRAINERD       CLEAR     42  36  79 N3        30.06R
HIBBING        CLEAR     42  32  67 N8        30.04R
ALEXANDRIA     CLEAR     48  34  58 N6        30.08R
SAINT CLOUD    CLEAR     48  32  53 N7        30.03R
MINNEAPOLIS    MOCLDY    55  43  63 NW6       29.99R
$$

  *****  WEATHER ACROSS SOUTH DAKOTA  *****

CITY           SKY/WX    TMP DP  RH WIND       PRES   REMARKS
SIOUX FALLS    CLEAR     49  31  49 N5        30.06R
BROOKINGS      CLEAR     45  28  53 CALM      30.08S
WATERTOWN      CLEAR     38  27  64 N5        30.08S
HURON          PTCLDY    41  30  65 NE3       30.09R
SISSETON         N/A     44  25  47 NW9       30.08R
ABERDEEN       CLEAR     39  26  59 N3        30.11S
MITCHELL       PTCLDY    44  34  67 NW6       30.09R
PIERRE         MOCLDY    44  24  45 NE5       30.10R
MOBRIDGE       CLEAR     37  24  59 N6        30.09S
RAPID CITY     CLOUDY    48  35  60 W3        30.11R
$$

  *****  SOME WEATHER IN NEARBY STATES *****

CITY           SKY/WX    TMP DP  RH WIND       PRES   REMARKS
GLASGOW MT     CLEAR     42  24  49 E13       30.07F
GREAT FALLS MT CLEAR     43  32  65 E5        29.95S
CHEYENNE WY    CLOUDY    47  42  83 SE10      30.12R
SCOTTSBLUFF NE MOCLDY    53  39  59 E8        30.08R
OMAHA NE       CLOUDY    61  55  81 N5        29.94R
DES MOINES IA  CLOUDY    67  56  67 N10       29.88R
DAVENPORT IA   LGT RAIN  60  56  86 SE9       29.96F
CHICAGO IL     CLOUDY    65  48  54 W17G24    29.93R
EAU CLAIRE WI  PTCLDY    54  49  83 N6        29.94S
LA CROSSE WI   CLOUDY    61  58  90 N7        29.92R
$$

  *****  SOME NATIONAL WEATHER *****

CITY           SKY/WX    TMP DP  RH WIND       PRES   REMARKS
LA GUARDIA NY  CLEAR     57  46  66 S5        30.16S
RALEIGH NC     PTCLDY    58  52  80 CALM      30.24S
ATLANTA GA     CLEAR     62  50  64 CALM      30.19F
NEW ORLEANS LA PTCLDY    63  57  81 CALM      30.08F
OKLAHOMA CITY  MOCLDY    62  56  80 S8        29.96R
ALBUQUERQUE NM MOCLDY    61  37  41 NW7       30.02S
SALT LAKE CITY LGT RAIN  62  47  57 SE13      29.96R
LOS ANGELES CA CLEAR     56  51  84 SW8       29.92R
BOISE ID       CLEAR     55  30  38 S6        29.84R
SEATTLE WA     CLEAR     53  37  55 CALM      29.89R
$$

*** WEATHER ACROSS MANITOBA...SASKATCHEWAN AND ONTARIO ***
                ***ONTARIO***

CITY           SKY/WX    TMP DP  RH WIND       PRES   REMARKS
GERALDTON      PTCLDY    37  34  87 W6        29.86F
THUNDER BAY    PTCLDY    46  36  66 W9        29.95R
SIOUX LOOKOUT  PTCLDY    36  34  93 W3        30.00R
TORONTO        PTCLDY    59  41  51 S5        30.03F
BIG TROUT LK   FLURRIES  30  30 100 NW5       29.95S
PICKLE LAKE    NOT AVBL
DRYDEN         CLEAR     39  37  93 W8        30.02R
KENORA         CLEAR     39  36  87 NW5       30.06R
$$
                *** MANITOBA***

CITY           SKY/WX    TMP DP  RH WIND       PRES   REMARKS
BRANDON        CLEAR     28  23  80 NW6       30.11S WCI  22
DAUPHIN        CLEAR     39  32  75 W13       30.08R
ISLAND LAKE    CLOUDY    36  32  87 W7        29.98S
PILOT MOUND      N/A     36  34  93 W5          N/A
THE PAS        PTCLDY    36  25  64 NW7       30.09R
THOMPSON       FLURRIES  32  28  86 NW8       29.94R WCI  25
WINNIPEG       CLEAR     30  30 100 CALM      30.11R
LYNN LAKE      CLOUDY    30  27  86 NW7       29.99R WCI  23
CHURCHILL      LGT SNOW  21  19  93 NW6       29.93S WCI  14
GILLAM         MOCLDY    28  25  86 SW8       29.93S WCI  20
$$
                ***SASKATCHEWAN***

CITY           SKY/WX    TMP DP  RH WIND       PRES   REMARKS
ESTEVAN        NOT AVBL
KINDERSLEY     PTCLDY    32  28  86 SE5       30.08F
LLOYDMINSTER   CLEAR     34  28  80 SW8       30.05S
PRINCE ALBERT  PTCLDY    30  25  80 NE3       30.11R
REGINA         PTCLDY    34  30  86 S2        30.13R
YORKTON        CLEAR     39  36  87 SW8       30.10R



USA.gov is the U.S. government's official web portal to all federal, state and local government web resources and services.